Decorah, Iowa, United States (52101)
Lat: 43.30N, Lon: 91.79W
Wx Zone: IAZ010
Local Info
Past Weather Observations for Today

NOTE: This archive is for the closest National Weather Service station to Decorah. Information may differ from the station used for current weather conditions.

Click here for Long-term Archive

Time Weather Temperature Dewpoint Humidity Pressure Winds Precip Visibility
19:35
Clear
52°F / 11°C 30°F / -1°C 44% 30.04 in
(1017 mb)
W 5.8 mph
(W 9 kph)
- 10SM
19:15
Clear
54°F / 12°C 32°F / 0°C 44% 30.04 in
(1017 mb)
Variable 4.6 mph
(Variable 7 kph)
- 10SM
18:55
Clear
55°F / 13°C 30°F / -1°C 38% 30.04 in
(1017 mb)
W 4.6 mph
(W 7 kph)
- 10SM
18:35
Clear
55°F / 13°C 30°F / -1°C 38% 30.04 in
(1017 mb)
NW 4.6 mph
(NW 7 kph)
- 10SM
18:15
Clear
55°F / 13°C 30°F / -1°C 38% 30.04 in
(1017 mb)
NW 4.6 mph
(NW 7 kph)
- 10SM
17:55
Clear
57°F / 14°C 30°F / -1°C 36% 30.04 in
(1017 mb)
Variable 3.5 mph
(Variable 6 kph)
- 10SM
17:35
Clear
57°F / 14°C 30°F / -1°C 36% 30.04 in
(1017 mb)
NW 4.6 mph
(NW 7 kph)
- 10SM
17:15
Clear
59°F / 15°C 28°F / -2°C 31% 30.04 in
(1017 mb)
Variable 4.6 mph
(Variable 7 kph)
- 10SM
16:55
Clear
61°F / 16°C 28°F / -2°C 29% 30.04 in
(1017 mb)
NW 6.9 mph
(NW 11 kph)
- 10SM
16:35
Clear
63°F / 17°C 27°F / -3°C 25% 30.04 in
(1017 mb)
NW 6.9 mph
(NW 11 kph)
- 10SM
16:15
Clear
63°F / 17°C 25°F / -4°C 24% 30.04 in
(1017 mb)
NW 12.7 mph
(NW 20 kph)
- 10SM
15:55
Clear
63°F / 17°C 27°F / -3°C 25% 30.04 in
(1017 mb)
NW 13.8 mph
(NW 22 kph)
- 10SM
15:35
Clear
64°F / 18°C 28°F / -2°C 26% 30.04 in
(1017 mb)
NW 12.7 mph
(NW 20 kph)
- 10SM
15:15
Clear
64°F / 18°C 28°F / -2°C 26% 30.04 in
(1017 mb)
NW 15 mph
(NW 24 kph)
- 10SM
14:55
Clear
64°F / 18°C 28°F / -2°C 26% 30.04 in
(1017 mb)
NW 13.8 mph
(NW 22 kph)
- 10SM
14:35
Clear
66°F / 19°C 27°F / -3°C 22% 30.04 in
(1017 mb)
NW 13.8 mph
(NW 22 kph)
- 10SM
14:15
Clear
66°F / 19°C 28°F / -2°C 24% 30.04 in
(1017 mb)
NNW 13.8 mph
(NNW 22 kph)
- 10SM
13:55
Clear
66°F / 19°C 28°F / -2°C 24% 30.04 in
(1017 mb)
NW 10.4 mph
(NW 17 kph)
- 10SM
13:35
Clear
66°F / 19°C 30°F / -1°C 26% 30.04 in
(1017 mb)
NW 12.7 mph
(NW 20 kph)
- 10SM
13:15
Clear
66°F / 19°C 30°F / -1°C 26% 30.04 in
(1017 mb)
WNW 10.4 mph
(WNW 17 kph)
- 10SM
12:55
Clear
66°F / 19°C 32°F / 0°C 28% 30.04 in
(1017 mb)
NNW 10.4 mph
(NNW 17 kph)
- 10SM
12:35
Clear
64°F / 18°C 30°F / -1°C 28% 30.04 in
(1017 mb)
NW 17.3 mph
(NW 28 kph)
- 10SM
12:15
Clear
64°F / 18°C 30°F / -1°C 28% 30.04 in
(1017 mb)
NW 12.7 mph
(NW 20 kph)
- 10SM
11:55
Clear
64°F / 18°C 32°F / 0°C 30% 30.04 in
(1017 mb)
NNW 16.1 mph
(NNW 26 kph)
- 10SM
11:35
Clear
64°F / 18°C 32°F / 0°C 30% 30.04 in
(1017 mb)
NW 12.7 mph
(NW 20 kph)
- 10SM
11:15
Clear
63°F / 17°C 32°F / 0°C 32% 30.04 in
(1017 mb)
NNW 13.8 mph
(NNW 22 kph)
- 10SM
10:55
Clear
63°F / 17°C 34°F / 1°C 34% 30.06 in
(1018 mb)
NW 17.3 mph
(NW 28 kph)
- 10SM
10:35
Clear
61°F / 16°C 36°F / 2°C 39% 30.06 in
(1018 mb)
NNW 10.4 mph
(NNW 17 kph)
- 10SM
10:15
Clear
61°F / 16°C 36°F / 2°C 39% 30.06 in
(1018 mb)
NNW 16.1 mph
(NNW 26 kph)
- 10SM
09:55
Clear
59°F / 15°C 39°F / 4°C 48% 30.04 in
(1017 mb)
NW 8.1 mph
(NW 13 kph)
- 10SM
09:35
Clear
57°F / 14°C 39°F / 4°C 51% 30.04 in
(1017 mb)
NW 10.4 mph
(NW 17 kph)
- 10SM
09:15
Clear
55°F / 13°C 41°F / 5°C 59% 30.04 in
(1017 mb)
NW 11.5 mph
(NW 19 kph)
- 10SM
08:55
Clear
55°F / 13°C 43°F / 6°C 63% 30.04 in
(1017 mb)
NW 6.9 mph
(NW 11 kph)
- 10SM
08:35
Clear
54°F / 12°C 43°F / 6°C 67% 30.04 in
(1017 mb)
Variable 5.8 mph
(Variable 9 kph)
- 10SM
08:15
Clear
52°F / 11°C 43°F / 6°C 72% 30.04 in
(1017 mb)
Variable 4.6 mph
(Variable 7 kph)
- 10SM
07:55
Clear
50°F / 10°C 43°F / 6°C 76% 30.04 in
(1017 mb)
Variable 3.5 mph
(Variable 6 kph)
- 10SM
07:35
Clear
50°F / 10°C 43°F / 6°C 76% 30.01 in
(1016 mb)
Variable 3.5 mph
(Variable 6 kph)
- 10SM
07:15
Clear
48°F / 9°C 43°F / 6°C 82% 30.01 in
(1016 mb)
Calm - 10SM
06:55
Clear
48°F / 9°C 43°F / 6°C 82% 30.01 in
(1016 mb)
Calm - 10SM
06:35
Clear
48°F / 9°C 43°F / 6°C 82% 30.01 in
(1016 mb)
Calm - 10SM
06:15
Clear
48°F / 9°C 43°F / 6°C 82% 29.98 in
(1015 mb)
Calm - 10SM
05:55
Clear
48°F / 9°C 45°F / 7°C 87% 29.98 in
(1015 mb)
Calm - 10SM
05:35
Clear
48°F / 9°C 45°F / 7°C 87% 29.98 in
(1015 mb)
Calm - 10SM
05:15
Clear
48°F / 9°C 45°F / 7°C 87% 29.98 in
(1015 mb)
Calm - 10SM
04:55
Clear
48°F / 9°C 46°F / 8°C 94% 29.98 in
(1015 mb)
Calm - 10SM
04:35
Clear
50°F / 10°C 46°F / 8°C 88% 29.98 in
(1015 mb)
SW 3.5 mph
(SW 6 kph)
- 10SM
04:15
Clear
50°F / 10°C 46°F / 8°C 88% 29.98 in
(1015 mb)
Calm - 10SM
03:55
Clear
52°F / 11°C 46°F / 8°C 82% 29.98 in
(1015 mb)
Variable 4.6 mph
(Variable 7 kph)
- 10SM
03:35
Clear
52°F / 11°C 48°F / 9°C 88% 29.95 in
(1014 mb)
SSW 4.6 mph
(SSW 7 kph)
- 10SM
03:15
Partly Cloudy
52°F / 11°C 50°F / 10°C 94% 29.95 in
(1014 mb)
Variable 3.5 mph
(Variable 6 kph)
- 10SM
02:55
Partly Cloudy
52°F / 11°C 50°F / 10°C 94% 29.95 in
(1014 mb)
Calm - 10SM
02:35
Clear
54°F / 12°C 52°F / 11°C 94% 29.95 in
(1014 mb)
Calm - 9SM
02:15
Clear
54°F / 12°C 52°F / 11°C 94% 29.95 in
(1014 mb)
SSW 4.6 mph
(SSW 7 kph)
- 7SM
01:55
Clear
Fog And Mist
54°F / 12°C 54°F / 12°C 100% 29.95 in
(1014 mb)
Variable 5.8 mph
(Variable 9 kph)
- 5SM
01:35
Clear
Fog And Mist
55°F / 13°C 54°F / 12°C 94% 29.95 in
(1014 mb)
SSW 4.6 mph
(SSW 7 kph)
- 3SM
01:15
Partly Cloudy
Fog And Mist
55°F / 13°C 55°F / 13°C 100% 29.92 in
(1013 mb)
Calm - 3SM
00:55
Overcast
Fog And Mist
55°F / 13°C 55°F / 13°C 100% 29.95 in
(1014 mb)
Calm - 1 3/4SM
00:35
Overcast
Fog
55°F / 13°C 55°F / 13°C 100% 29.95 in
(1014 mb)
SSW 4.6 mph
(SSW 7 kph)
- 1/2SM
00:15
Overcast
Fog
57°F / 14°C 57°F / 14°C 100% 29.92 in
(1013 mb)
SSW 5.8 mph
(SSW 9 kph)
- 1/2SM
Time Weather Temperature Dewpoint Humidity Pressure Winds Precip Visibility


Weather for websites

WeatherForYou.com, LLC is not responsible for any damages or problems caused by this service. Current weather conditions are obtained from the closest station including government and personal stations which may have varying degrees of accuracy. Weather forecasts are derived from the NOAA NDFD. Like all things, this site belongs to Jesus Christ... He just trusts me to maintain it. If you have any questions or comments email webmaster@weatherforyou.com

Copyright © 2014, WeatherForYou.com LLC. All rights reserved.